GFSSGP_500_spd_063.txt.gz
Wind_Speed
23 24 23 26 29 32 30 33 29 25 25 22 24 25 22 19 16 13 10 8 6 5 6 5 4 3 4 4 3 4 3 3 1 0 1 2 4 5 3 8 12 12 9 6 6 6 6 7 8
21 22 21 22 30 28 29 29 23 23 23 23 25 23 20 19 17 16 12 10 7 6 7 7 5 4 4 5 4 4 4 3 1 1 0 2 2 4 6 5 6 9 10 9 7 7 8 7 9
19 20 18 24 31 29 27 26 25 21 21 21 21 22 20 17 15 17 15 11 9 10 9 8 6 5 4 5 5 5 5 4 2 3 4 4 4 2 2 2 3 8 8 6 8 9 10 10 10
13 14 21 29 29 27 24 25 26 20 21 19 22 22 17 15 19 17 13 11 11 12 13 11 8 7 3 1 4 6 6 5 2 3 3 3 4 5 3 4 5 6 8 7 6 8 11 12 12
11 12 17 21 25 26 24 24 22 20 19 19 22 19 19 22 22 18 17 15 13 14 15 13 11 8 5 3 1 1 2 4 6 5 3 3 2 2 2 3 3 6 7 7 7 8 10 11 12
4 10 14 17 23 24 23 20 18 18 18 19 18 19 18 21 22 21 19 17 17 17 17 16 13 10 7 5 3 2 1 2 3 4 5 4 6 4 4 4 3 2 3 13 9 9 8 9 10
4 8 6 11 17 16 21 17 15 14 17 20 20 21 18 21 23 23 19 19 21 18 16 17 13 11 8 4 4 4 3 3 4 6 5 5 5 5 6 8 7 5 2 8 13 11 9 10 10
1 4 11 11 12 16 16 16 13 12 16 20 23 20 17 22 22 21 21 22 21 20 17 18 17 15 11 3 0 2 3 3 4 6 7 6 7 7 7 8 9 9 8 5 10 14 12 13 13
3 9 9 8 12 20 16 22 15 17 20 20 20 17 18 23 22 22 19 19 18 17 16 16 16 17 15 12 6 3 4 4 5 7 8 8 8 8 6 8 8 10 12 9 8 13 14 14 14
8 8 13 11 19 19 18 20 19 23 20 20 19 17 20 22 25 24 22 20 20 18 16 14 14 14 14 12 8 6 3 7 7 8 10 10 10 12 9 10 10 9 11 12 12 13 15 19 17
4 9 12 12 13 17 21 22 18 24 22 21 24 19 20 22 25 26 23 22 21 20 18 14 10 10 13 12 9 7 6 5 10 11 11 12 12 15 13 11 10 9 11 12 13 12 13 20 18
8 7 4 1 11 15 18 17 20 21 24 19 19 19 19 19 21 24 23 23 21 21 20 17 11 9 11 13 14 12 10 9 7 12 12 12 13 15 17 13 10 12 10 11 12 12 13 17 17
11 13 10 8 5 10 10 12 18 21 24 25 21 19 19 21 21 20 21 21 21 21 22 19 13 14 15 15 17 17 13 10 12 12 13 16 16 15 16 13 13 14 13 13 14 14 13 14 14
17 17 13 12 3 5 3 5 12 17 17 20 22 20 20 21 20 19 18 19 22 21 19 19 16 15 15 15 17 17 14 12 13 12 14 20 20 18 18 15 15 16 14 15 15 13 15 16 17
23 16 11 5 6 3 3 3 9 12 12 15 21 21 21 23 21 20 19 20 22 21 19 16 16 16 15 17 17 19 19 9 12 12 14 14 17 20 21 14 17 17 15 15 14 16 18 19 22
24 25 16 9 8 8 8 10 8 8 7 11 12 15 22 22 22 21 20 21 23 21 19 17 18 18 17 18 18 18 20 16 12 3 6 13 11 12 14 16 15 15 16 16 16 18 21 22 19
22 15 13 12 13 13 13 12 13 10 9 7 10 16 20 18 22 20 22 21 23 21 20 20 22 20 21 21 20 17 18 19 11 6 7 7 12 13 12 15 15 15 13 12 15 16 18 23 26
21 20 17 17 18 20 20 17 17 9 3 6 7 16 14 21 20 19 21 22 23 22 22 20 21 20 20 22 21 17 18 18 16 9 3 7 11 11 14 16 15 15 13 14 16 20 18 14 15
25 22 18 13 22 27 25 25 22 23 11 7 8 9 18 24 18 20 21 22 22 23 20 19 19 21 21 21 22 17 17 18 16 14 6 7 8 11 14 16 15 16 17 17 17 23 23 18 19
27 29 18 16 8 11 22 14 19 24 17 16 12 12 17 22 18 19 23 23 24 22 18 16 18 19 20 21 22 21 18 17 15 14 10 6 8 9 12 12 16 15 20 21 19 16 13 11 13
35 29 19 13 11 11 19 21 20 19 17 13 11 11 17 18 23 23 23 25 31 21 16 17 15 6 16 21 22 23 20 18 17 15 14 8 8 13 16 15 15 12 13 16 14 11 12 12 14
30 26 25 19 17 19 21 20 20 19 18 14 10 7 8 16 22 23 23 29 33 23 19 22 20 14 18 22 26 27 24 17 15 16 15 13 9 13 15 16 16 15 13 15 17 12 12 13 14
36 26 24 21 20 21 17 22 16 19 20 16 17 14 6 12 17 20 25 29 22 23 27 26 5 14 20 23 27 30 26 17 16 15 16 18 12 12 15 18 19 18 15 14 17 13 14 12 11
37 32 28 23 24 26 22 25 19 22 25 27 22 19 12 11 17 17 22 27 20 22 28 35 6 19 20 23 24 26 26 19 17 20 21 23 15 13 13 15 18 19 20 18 18 15 13 11 11
30 27 27 27 26 27 26 27 27 27 19 13 16 14 16 13 17 17 22 25 14 15 20 26 25 18 21 26 28 25 24 22 22 26 18 22 22 20 15 11 12 14 17 16 16 14 13 11 11
27 27 25 27 35 34 31 29 30 21 14 14 11 16 17 22 28 25 15 21 12 13 13 18 22 21 21 24 26 24 24 24 28 22 11 13 23 21 15 11 10 10 12 14 15 14 13 12 12
26 21 20 22 23 27 28 26 24 16 15 13 12 16 22 26 30 28 38 31 12 5 10 17 17 21 18 22 26 23 23 22 27 21 9 7 15 17 13 14 12 10 11 12 10 11 11 10 11
25 18 20 21 21 22 23 26 24 22 19 18 20 22 26 30 30 35 37 36 12 6 11 12 15 17 21 21 24 23 20 21 22 20 9 6 10 13 10 12 11 10 13 12 11 10 10 11 13
22 18 16 16 23 23 22 24 20 16 22 21 23 26 27 29 29 43 55 47 26 12 3 12 16 18 21 19 23 23 20 21 21 21 10 6 7 11 9 10 9 11 11 12 12 11 11 11 12
24 24 20 18 16 26 24 23 21 16 18 20 25 26 25 28 31 46 60 9 8 6 3 11 13 20 18 19 20 22 18 17 19 20 14 12 5 3 5 9 11 11 9 10 10 12 12 12 14

GFSSGP_500_spd_066.txt.gz
Wind_Speed
23 22 24 26 27 27 27 29 28 23 21 20 22 21 19 17 15 12 12 10 7 4 1 2 2 2 2 3 5 5 5 5 4 3 4 5 7 5 5 7 9 9 10 8 8 9 8 9 11
24 20 21 25 27 26 28 30 26 24 22 22 25 24 25 18 16 15 13 11 9 6 3 3 4 3 2 4 5 5 4 4 4 3 3 5 5 7 6 5 14 12 11 8 8 9 9 9 10
21 18 17 22 24 26 29 28 26 23 21 22 27 26 24 20 16 16 13 12 11 8 6 5 6 4 2 2 3 5 6 5 5 6 6 5 4 4 3 2 3 7 9 6 7 7 8 9 10
17 13 15 22 22 24 26 24 23 22 22 26 23 25 24 19 17 19 15 11 9 7 7 8 7 5 4 2 3 2 3 5 6 7 7 5 4 2 1 1 3 6 8 5 6 7 7 8 10
13 12 19 21 20 22 22 21 21 24 23 23 22 22 22 20 21 20 19 15 13 11 11 10 8 5 4 3 1 2 1 1 2 4 6 5 4 2 1 0 1 3 2 4 6 8 8 8 10
8 7 17 18 20 21 20 24 24 23 24 23 26 22 20 18 18 19 17 13 10 11 11 9 6 4 2 1 1 1 1 2 3 2 3 5 4 3 1 1 0 4 1 7 7 6 8 9 10
8 7 16 20 21 24 26 25 26 25 27 26 24 23 22 19 20 17 14 12 11 10 10 11 9 6 3 3 2 2 1 2 3 3 4 4 5 4 4 3 2 1 1 4 7 6 7 9 11
8 14 22 22 18 16 23 23 24 24 27 25 24 23 25 25 25 21 16 11 10 9 9 10 12 12 6 2 4 3 3 3 4 5 6 6 6 5 4 6 6 6 4 3 9 9 8 9 10
7 14 14 20 18 15 20 23 21 25 25 22 23 22 21 23 24 23 20 17 13 8 8 8 10 10 7 5 2 2 4 4 6 7 7 7 7 6 6 7 8 8 8 7 6 14 13 12 12
3 4 11 16 17 20 21 22 23 23 24 22 23 21 22 21 22 25 21 20 18 15 11 7 8 9 8 7 5 3 2 7 10 10 10 10 10 9 9 8 7 9 11 11 9 10 14 14 15
7 4 1 9 15 16 18 19 22 20 22 22 22 24 25 25 23 25 24 22 21 18 16 10 5 7 8 9 9 8 6 6 7 12 13 13 13 11 10 9 8 9 9 11 10 10 13 14 17
12 7 2 7 10 15 17 18 16 18 18 21 25 23 24 25 25 26 27 25 25 20 20 16 9 8 9 12 13 12 9 10 8 11 13 13 12 11 11 10 11 10 9 9 9 11 12 14 18
15 9 10 4 6 9 12 15 15 15 15 18 21 21 22 22 23 25 28 28 26 21 17 17 13 12 11 14 16 18 24 14 8 11 14 17 13 13 12 13 14 12 11 10 10 11 11 11 14
15 14 11 8 3 3 11 11 8 9 11 16 18 21 24 24 25 22 25 27 26 23 15 14 13 12 13 14 16 18 21 18 9 11 11 12 12 14 14 15 17 14 12 12 11 11 11 12 12
17 19 16 9 5 4 4 5 1 3 5 15 17 17 24 25 25 24 21 23 23 22 17 15 15 13 15 16 17 17 21 20 12 12 12 12 13 20 16 16 18 17 15 15 14 14 15 14 12
21 24 22 14 15 16 4 2 4 3 2 13 10 14 17 20 26 19 19 21 23 20 17 16 17 16 16 19 19 14 18 20 16 13 8 11 16 19 15 18 16 18 18 17 17 17 15 15 16
27 25 24 26 24 16 18 10 3 1 4 7 9 13 15 19 24 22 22 21 22 21 16 15 17 17 17 19 20 17 16 19 18 13 7 3 11 14 12 13 18 17 17 18 19 18 17 15 19
22 24 24 21 18 18 21 16 7 6 5 3 8 13 17 23 24 24 21 22 25 22 17 14 13 15 14 17 20 20 16 16 17 14 8 2 4 12 12 16 16 17 18 17 17 15 16 14 16
28 23 21 18 19 17 23 22 14 10 5 1 5 8 16 18 21 23 23 25 27 27 22 21 18 13 11 15 17 18 20 16 15 14 11 7 6 11 14 16 16 17 18 18 14 14 18 14 16
34 28 23 18 19 20 19 8 9 12 11 6 6 10 15 13 20 24 28 26 27 25 22 23 23 9 10 16 19 20 18 16 13 12 10 6 10 8 9 13 16 15 15 16 18 17 19 21 15
35 31 23 16 22 24 20 12 13 17 19 11 10 12 14 13 17 24 26 24 27 26 24 21 13 10 10 14 17 22 21 13 14 12 11 7 6 10 10 12 12 14 15 16 20 19 17 13 12
37 32 30 26 24 20 16 17 15 22 21 14 16 16 14 16 15 22 24 24 28 33 28 31 19 5 9 10 16 19 20 15 13 15 13 11 9 8 12 14 16 17 17 14 15 16 14 13 13
30 35 33 27 28 26 23 26 19 21 21 21 21 19 17 19 18 19 22 22 27 25 28 33 8 10 16 17 18 20 20 19 14 14 17 15 15 13 11 14 16 19 17 16 16 16 14 15 15
31 36 32 27 23 30 26 26 21 20 24 20 21 21 15 15 17 21 25 30 23 27 23 27 25 19 16 16 18 22 21 19 15 17 19 19 22 19 16 14 14 19 19 19 14 14 15 16 16
34 36 34 33 29 31 26 32 29 27 23 22 20 15 17 20 18 21 28 32 37 33 44 29 29 16 16 19 22 21 19 20 17 20 20 14 15 20 18 10 8 11 15 19 18 17 17 17 17
35 34 30 32 34 31 32 31 25 25 25 21 18 11 15 13 16 21 26 33 26 35 47 16 21 13 15 20 22 21 18 20 19 22 18 15 13 17 15 12 8 8 10 14 15 16 16 15 15
33 33 33 31 28 30 28 29 34 35 23 16 16 16 16 19 24 28 23 36 35 46 34 32 18 9 13 15 19 23 18 20 21 24 12 8 6 11 11 12 10 9 10 11 12 11 12 13 14
31 28 29 27 28 28 24 20 20 21 21 18 23 24 24 22 25 26 33 37 42 51 54 40 10 7 11 12 16 21 18 16 19 22 19 5 2 5 11 9 9 7 8 12 13 11 11 11 12
31 28 27 25 27 25 22 19 14 10 15 21 26 26 25 24 22 21 26 39 41 46 27 23 6 6 11 13 15 19 18 16 15 17 17 10 3 5 9 6 7 5 6 7 10 11 12 12 11
33 30 26 23 21 20 20 21 16 17 18 17 21 27 23 22 24 25 28 32 42 29 8 12 4 7 12 15 13 16 18 18 15 18 17 10 6 4 2 4 5 5 7 7 8 11 12 12 12

GFSSGP_500_spd_072.txt.gz
Wind_Speed
25 24 22 19 27 30 25 23 23 23 23 21 22 22 21 19 16 13 13 9 7 5 5 4 3 1 4 5 6 7 7 7 8 9 9 10 11 10 11 12 12 12 13 13 13 10 10 13 12
25 22 20 17 31 25 24 23 24 23 21 22 22 21 21 19 16 14 13 10 8 7 6 6 3 0 2 4 5 6 7 8 9 9 9 11 11 7 11 12 12 13 14 13 14 11 11 13 12
22 19 17 23 25 24 22 23 25 24 22 23 24 23 22 21 20 17 14 13 9 6 7 5 3 1 2 3 3 5 7 8 10 10 9 9 8 8 6 12 14 14 15 14 14 13 13 13 13
19 17 19 26 20 21 23 25 26 26 25 27 28 30 30 26 23 21 17 13 12 9 7 5 2 0 2 2 4 6 7 8 10 11 11 10 8 5 7 15 17 16 16 16 15 14 14 14 13
14 13 25 19 17 18 22 22 23 25 23 24 25 28 30 30 27 24 19 14 10 10 9 5 2 2 2 3 4 5 6 7 10 11 10 10 9 8 6 9 21 19 19 17 15 15 13 14 14
11 11 15 16 15 14 17 18 21 22 22 23 25 27 29 30 29 28 24 18 15 12 11 9 5 3 2 2 4 5 5 6 9 11 11 10 10 10 8 8 11 21 18 17 16 15 14 13 13
10 14 12 12 11 13 14 16 18 20 21 24 25 26 27 28 30 29 29 23 18 14 12 10 9 5 1 3 5 6 6 7 8 10 12 13 12 11 10 10 11 18 17 17 16 16 15 15 15
9 12 10 7 7 8 11 14 16 18 22 23 24 25 25 26 28 30 29 27 21 15 12 10 8 8 7 1 3 2 4 7 8 10 10 11 12 12 12 13 13 13 17 16 16 16 16 16 16
6 9 9 6 4 4 8 11 13 15 20 21 24 27 26 25 27 29 30 27 23 19 13 8 8 9 8 5 1 3 5 7 9 11 11 10 10 12 12 12 13 13 15 18 15 15 16 16 16
4 6 6 5 4 7 7 9 13 14 16 18 21 22 24 27 26 27 30 29 24 19 17 10 8 10 10 8 6 4 5 8 13 14 13 11 11 11 11 12 13 14 14 15 16 15 14 14 15
4 1 2 2 2 5 6 8 11 13 14 15 18 22 22 26 27 27 30 31 29 19 18 16 11 9 10 10 10 9 12 4 14 17 15 15 13 13 11 11 12 14 15 15 14 15 16 15 16
7 4 3 1 3 6 6 8 11 12 15 14 16 18 23 27 28 28 29 29 30 25 19 19 14 13 13 11 10 10 15 16 5 15 16 16 15 15 14 13 12 13 14 15 15 13 16 17 15
8 9 4 3 3 3 4 4 8 9 15 15 15 17 21 24 26 27 27 27 27 26 25 23 19 15 15 14 11 11 15 16 9 15 10 14 17 16 18 17 15 13 12 13 15 14 14 17 16
9 12 8 5 5 3 5 5 7 7 10 13 13 15 17 22 22 24 25 29 27 23 21 22 21 19 15 15 12 11 13 14 7 2 8 15 17 16 17 17 16 16 14 13 15 15 15 15 15
13 12 12 11 9 5 3 10 10 10 6 7 11 15 16 18 20 20 22 25 25 22 19 19 20 18 17 14 13 11 11 13 12 7 13 10 18 17 17 17 15 15 15 14 14 15 15 14 14
16 15 8 16 10 10 7 5 17 13 9 2 8 10 14 16 18 18 20 22 23 24 22 18 20 19 20 10 10 12 12 11 11 7 1 10 13 13 20 17 15 14 15 15 16 15 14 15 14
18 14 13 15 13 16 12 8 13 15 15 10 8 10 14 17 16 19 19 19 22 24 24 28 27 29 27 14 9 7 9 12 10 9 2 6 14 19 15 20 16 16 15 16 17 17 16 15 14
14 19 16 17 19 16 14 12 14 9 16 15 10 9 13 18 17 18 21 20 23 25 32 34 32 36 28 15 9 10 13 12 10 10 5 4 8 11 15 16 15 16 20 18 19 19 17 16 15
26 24 19 20 23 22 13 14 14 16 11 19 13 7 10 17 17 18 22 23 26 30 33 32 38 41 40 30 15 5 11 13 12 7 8 6 7 14 14 14 14 16 13 21 21 20 19 17 17
22 22 18 20 24 16 14 12 10 11 10 20 14 10 6 15 20 19 25 28 31 31 29 31 38 39 42 28 11 2 8 12 12 11 7 6 7 10 14 12 14 19 20 22 23 20 19 18 17
23 18 18 21 20 18 16 11 13 12 9 12 13 14 9 13 22 23 27 30 32 29 28 26 29 31 25 8 6 8 10 11 11 11 9 9 9 9 14 13 16 18 19 20 18 18 19 19 19
23 20 22 20 22 17 21 15 14 13 12 11 14 15 16 16 21 28 28 28 26 28 30 25 27 30 20 12 7 10 12 13 14 13 10 10 11 13 12 14 15 16 18 17 16 16 18 23 20
22 25 22 21 20 20 22 21 12 18 15 12 20 19 20 22 21 26 24 21 24 29 29 40 36 24 22 4 10 12 13 14 13 14 11 12 13 14 17 14 15 17 18 16 17 16 14 15 16
23 21 22 20 19 22 16 23 13 12 19 17 20 22 22 22 15 12 19 24 27 31 28 34 35 42 9 4 8 13 17 18 15 14 14 15 15 17 19 19 17 17 18 19 19 18 14 14 18
20 20 16 15 17 18 20 26 15 18 26 24 23 24 26 20 15 16 18 23 27 24 27 30 27 33 18 8 7 12 16 17 15 14 14 15 11 13 14 18 20 18 17 20 20 19 18 15 17
19 18 16 15 14 15 24 25 15 20 20 22 26 28 18 13 15 18 21 24 24 22 23 34 41 30 36 3 4 8 12 13 14 14 13 9 6 10 12 15 18 17 16 18 20 20 19 19 19
21 21 14 19 20 18 17 18 20 18 19 18 21 25 17 12 15 21 24 25 19 21 25 31 33 27 10 3 1 7 9 9 11 13 15 10 5 7 9 13 18 17 16 17 18 18 19 19 19
26 19 21 18 17 18 15 18 16 15 10 9 12 12 14 17 21 23 25 19 21 24 30 41 37 30 11 5 1 3 7 9 12 16 15 13 6 4 13 12 15 17 13 15 14 15 17 18 18
25 24 26 20 21 17 16 14 20 15 11 11 8 11 16 19 19 22 19 19 21 24 30 23 14 17 11 7 3 3 3 6 11 15 16 15 13 6 4 8 10 15 15 14 14 15 17 17 16
22 21 25 26 23 22 24 17 22 16 12 16 15 15 18 16 16 19 18 17 18 22 23 6 13 12 10 7 3 2 4 6 8 12 14 15 12 10 7 9 13 19 12 12 12 12 16 16 15

GFSSGP_500_spd_075.txt.gz
Wind_Speed
19 18 15 10 30 20 19 20 19 19 18 16 17 20 18 17 14 11 13 10 8 5 4 5 4 4 4 4 5 7 7 9 9 8 9 10 11 12 12 13 12 13 13 13 12 12 11 12 11
16 16 8 24 24 14 20 20 18 18 19 21 22 21 20 19 19 17 16 11 9 7 4 4 4 3 2 2 3 5 7 8 9 9 9 11 11 12 13 13 13 13 13 14 10 10 11 12 11
18 16 19 27 14 19 20 19 19 21 22 25 26 25 24 25 22 20 18 15 13 9 7 6 4 4 2 1 0 3 5 8 10 10 11 10 10 11 12 14 13 13 14 14 11 11 12 12 12
18 19 28 17 16 18 17 16 17 21 21 24 24 26 26 27 27 23 19 16 14 13 9 8 5 4 2 1 1 2 4 6 8 9 10 9 9 9 13 15 15 15 15 16 15 13 14 13 12
14 30 19 13 13 13 14 13 17 20 20 21 23 25 27 27 27 26 21 17 14 13 12 9 7 5 2 1 2 2 3 5 8 8 9 9 7 5 8 15 16 15 17 17 16 14 15 14 13
23 30 10 9 11 11 11 12 17 16 19 18 21 24 27 27 29 29 25 21 16 13 11 10 9 5 4 2 3 3 3 3 6 8 8 9 8 8 7 15 18 17 18 18 18 17 17 15 15
16 11 9 13 10 8 8 11 13 13 19 21 19 24 24 27 30 30 28 24 21 17 12 11 9 9 3 3 4 5 6 6 7 8 11 10 9 8 8 9 22 20 20 18 19 18 18 18 16
14 18 7 5 7 7 7 9 9 14 16 17 17 21 25 27 29 30 30 26 23 21 14 10 10 10 7 4 1 4 7 9 11 10 11 12 12 11 9 10 15 23 21 20 19 18 18 19 18
18 22 7 5 2 9 7 7 10 12 14 16 19 20 23 26 27 30 32 32 24 25 20 14 12 11 10 6 3 4 5 10 12 13 13 13 14 14 13 13 12 23 21 19 19 18 17 17 17
9 8 4 4 2 3 7 9 10 12 16 17 18 16 20 24 26 28 30 31 29 24 21 18 14 12 11 10 8 6 10 8 13 18 17 16 14 16 15 16 15 15 21 20 19 18 18 18 17
5 5 1 2 4 5 2 10 12 16 19 18 17 18 20 22 24 27 28 28 27 25 23 23 18 15 13 11 8 8 15 10 9 18 19 17 15 16 15 15 17 17 17 20 19 19 19 19 19
7 3 3 6 5 4 5 4 10 13 8 14 15 18 21 21 23 26 27 26 27 25 25 26 22 21 19 16 12 6 9 16 5 12 18 18 18 17 16 16 16 18 19 19 19 19 19 18 18
8 8 8 6 10 8 6 4 7 10 10 11 12 14 17 20 20 22 24 26 28 28 29 29 26 26 30 24 18 11 12 14 10 6 15 17 17 17 18 16 16 18 18 19 18 16 17 20 18
13 15 11 7 11 10 8 6 13 12 14 12 10 12 14 16 18 18 21 24 26 28 30 30 29 28 29 33 25 15 13 15 15 6 17 17 16 17 17 17 18 18 18 18 19 19 18 19 19
13 15 11 9 15 12 6 9 10 13 16 21 21 12 14 15 18 18 19 19 24 28 28 28 27 28 31 32 22 15 13 13 16 14 6 12 16 19 18 18 18 18 18 17 17 18 18 18 19
13 13 9 8 16 17 7 12 1 10 19 19 22 18 14 16 16 17 18 21 23 25 27 28 25 29 31 28 24 20 16 13 12 15 16 4 12 20 17 19 19 18 18 18 17 17 17 17 18
13 13 12 11 16 18 16 11 11 21 19 20 22 20 15 16 20 16 19 23 25 28 27 27 29 32 35 33 19 16 14 13 10 8 9 7 8 16 21 21 19 20 18 17 17 17 17 16 17
13 14 14 16 17 16 10 12 13 18 17 19 20 21 16 16 24 19 21 23 27 28 27 29 31 36 34 40 25 17 13 12 11 6 5 6 11 14 20 18 19 17 17 18 17 18 17 17 18
21 21 22 20 18 18 17 17 16 14 14 20 22 22 18 20 22 25 23 25 28 30 30 30 35 47 40 33 20 21 11 11 13 7 4 5 9 11 13 18 19 20 23 20 22 19 19 20 20
23 24 21 20 20 19 20 15 15 17 14 13 16 22 19 22 20 27 25 28 29 27 28 34 37 42 40 34 19 9 6 10 12 9 6 5 8 11 12 18 21 24 24 17 16 19 21 20 20
26 25 20 21 19 19 19 18 15 12 12 12 13 13 17 18 20 22 22 29 27 26 28 33 33 38 39 34 15 8 7 10 10 10 9 8 9 11 13 15 17 17 18 19 18 20 21 21 21
26 22 23 22 22 20 16 17 14 12 12 9 11 12 12 19 19 23 22 25 27 25 29 31 32 33 44 34 2 7 7 10 10 10 9 9 11 13 15 16 20 20 20 21 20 21 20 21 22
26 25 21 21 22 20 20 18 15 14 15 12 16 20 19 20 21 24 26 21 23 24 28 31 32 27 26 32 14 14 12 10 11 11 12 11 12 14 16 17 17 21 20 21 20 21 21 21 21
27 26 24 21 19 21 19 20 19 14 19 12 15 17 21 18 20 20 20 21 23 25 30 29 30 30 33 27 28 17 14 10 10 11 12 13 16 20 20 19 19 18 19 20 21 20 20 18 14
24 23 20 17 18 18 15 19 16 19 15 16 20 29 28 23 18 14 20 21 24 26 31 29 30 31 34 32 29 18 13 9 9 10 12 14 16 16 15 17 20 19 18 18 20 21 22 21 17
22 22 19 16 14 13 20 19 20 21 26 28 29 32 27 20 13 15 19 21 23 30 31 32 32 34 35 33 28 16 9 8 10 10 11 12 11 12 14 15 15 18 20 19 18 22 23 24 21
22 22 19 20 20 18 15 12 14 19 17 14 14 23 20 19 17 17 18 23 28 31 29 33 37 40 42 32 19 13 4 7 8 10 10 9 8 9 9 14 14 17 18 17 16 17 21 24 23
26 19 20 20 19 19 16 18 18 18 12 14 22 16 15 18 16 17 20 24 26 25 28 32 41 48 26 18 17 5 2 5 7 8 8 9 8 7 6 11 11 13 15 14 14 15 17 18 19
24 27 27 20 18 19 17 18 16 16 19 21 19 11 13 16 15 18 22 21 21 21 25 31 42 20 17 14 9 3 2 3 5 7 9 10 10 8 7 8 9 10 15 14 15 16 15 14 15
22 20 25 25 24 21 19 23 20 25 25 20 15 14 15 17 17 19 19 19 15 17 21 27 30 20 11 0 3 3 3 6 8 8 9 10 11 10 7 5 8 9 13 17 15 13 14 16 16

GFSSGP_500_spd_078.txt.gz
Wind_Speed
16 16 24 18 28 23 11 16 17 18 17 16 13 13 16 16 17 18 18 11 9 8 8 8 7 6 4 1 4 5 6 7 7 7 9 10 11 11 10 11 13 12 12 10 10 13 12 11 12
22 14 12 28 30 11 16 15 16 17 17 21 18 19 19 17 16 16 16 15 13 10 9 8 7 7 5 3 1 5 5 7 8 8 8 10 11 12 11 12 12 14 13 12 10 11 12 12 12
16 20 30 33 10 13 13 12 14 15 19 22 20 20 20 22 20 17 14 12 12 10 9 8 7 7 5 3 1 2 4 6 8 7 7 9 10 13 13 12 13 12 14 13 8 11 12 12 12
23 29 34 19 11 12 11 10 12 17 18 19 23 21 24 25 24 19 13 11 10 11 10 8 8 6 5 4 2 2 3 5 7 7 8 7 8 11 13 14 14 13 14 14 11 12 12 11 11
21 37 35 18 12 10 10 10 13 14 17 20 22 25 27 27 27 22 17 13 9 10 11 11 9 6 5 4 2 1 2 3 5 7 7 7 8 4 13 15 16 15 15 15 13 13 13 12 13
28 34 24 4 15 10 12 12 12 12 13 15 20 26 29 29 28 25 22 20 11 10 12 12 13 9 4 4 3 2 1 1 2 3 5 8 5 8 7 16 17 17 16 15 13 14 15 14 14
10 12 13 10 5 18 12 11 15 16 19 19 21 24 25 27 30 30 23 25 19 13 13 15 15 13 9 3 2 4 4 4 4 5 7 7 7 8 5 10 18 18 17 16 15 15 16 16 16
25 17 22 11 19 16 18 13 18 16 18 18 21 20 22 26 29 30 26 28 29 26 21 19 18 16 14 10 5 4 6 7 8 8 8 11 11 10 8 8 17 19 19 17 17 15 16 16 17
16 24 19 5 3 15 15 15 16 8 15 21 23 20 20 22 24 27 30 31 32 28 28 24 22 18 15 12 9 7 7 8 10 12 12 12 13 14 10 9 13 20 20 19 19 17 18 18 16
6 10 11 10 3 12 16 12 16 16 20 17 21 19 18 21 21 23 28 28 30 31 29 27 25 25 21 17 10 10 21 14 11 14 16 14 14 15 13 11 10 22 22 21 20 20 19 20 19
5 5 3 2 12 3 13 12 20 20 21 20 17 18 21 22 22 25 27 29 28 27 27 24 22 24 26 23 17 11 14 19 12 15 17 17 15 15 15 15 14 20 22 21 21 21 21 20 20
7 4 7 4 14 7 3 7 9 17 12 13 19 18 18 21 20 23 29 30 28 28 29 28 25 25 24 24 21 15 12 15 16 12 14 17 17 16 16 15 16 17 22 20 21 20 20 20 19
13 6 12 12 8 18 12 6 11 9 15 17 24 23 18 20 20 21 22 26 29 28 29 26 25 27 28 24 27 13 13 15 18 14 9 17 18 17 17 16 16 19 19 21 21 20 20 18 18
14 17 15 12 5 12 18 11 14 10 14 18 22 25 21 19 19 21 22 25 24 28 28 31 34 37 39 36 26 16 14 15 17 8 7 15 16 16 15 17 17 20 20 20 20 19 19 21 21
13 13 12 6 11 11 22 13 15 14 15 13 21 23 24 18 21 19 20 22 26 30 27 31 35 39 40 38 36 25 14 12 14 15 6 14 14 15 16 18 18 19 19 18 18 20 19 19 23
13 12 11 3 13 13 12 19 19 14 16 21 24 22 25 19 20 17 20 22 26 29 29 32 34 38 39 40 41 32 16 7 8 14 10 1 13 18 18 17 19 19 19 18 17 18 20 20 18
12 10 10 9 20 13 12 16 14 17 5 20 28 25 25 25 16 19 18 24 25 27 29 32 32 35 43 38 41 40 20 5 8 10 10 4 5 14 17 17 18 18 20 19 18 17 19 19 19
10 9 11 10 19 21 11 10 17 11 15 22 31 26 30 28 18 20 20 24 26 26 27 30 33 35 37 44 44 37 13 3 5 7 9 6 6 7 15 21 17 18 20 20 18 18 19 19 18
16 17 20 20 21 18 22 17 23 14 15 15 26 35 28 23 27 21 22 23 24 24 25 27 31 35 36 40 40 19 13 8 10 8 4 7 5 6 12 18 19 22 22 21 21 21 22 21 19
20 21 21 21 25 24 22 20 24 12 16 21 14 28 32 23 22 27 23 18 24 24 27 25 30 33 34 37 35 12 11 11 14 12 8 9 9 8 8 11 19 23 24 22 23 22 21 20 21
21 23 19 19 17 20 21 21 21 12 11 9 14 19 28 30 26 24 22 16 23 26 24 22 27 30 32 28 32 21 19 16 13 14 11 10 12 10 10 11 13 21 22 24 21 21 23 23 19
24 21 18 19 20 21 16 21 17 15 13 8 13 24 19 24 23 20 18 16 22 25 23 22 27 29 27 27 27 22 22 19 15 13 12 13 10 11 11 10 13 18 18 18 21 20 21 19 20
24 21 18 21 21 21 22 21 16 18 7 15 20 23 20 6 25 27 22 16 20 26 24 28 29 30 27 28 28 24 28 19 17 15 12 10 11 10 9 10 13 16 18 20 20 18 19 21 21
25 22 21 22 19 24 20 19 18 15 26 30 23 27 18 21 17 26 29 21 19 25 27 25 29 34 30 33 36 31 34 20 19 15 13 11 10 11 13 13 15 16 19 19 20 20 21 23 22
24 21 21 19 19 20 10 18 17 9 31 20 19 19 21 26 25 31 29 22 20 23 29 26 34 33 34 36 37 38 32 16 18 14 13 10 11 11 12 12 18 20 19 19 18 20 21 22 20
17 21 22 19 14 12 15 23 16 15 26 27 19 27 35 37 31 20 21 17 19 23 28 32 35 35 37 41 42 36 24 14 14 11 11 10 11 8 11 10 14 12 19 19 18 19 19 23 23
22 23 22 22 22 21 14 13 21 21 22 23 23 26 30 26 17 19 17 16 20 25 29 31 30 34 40 48 24 27 10 12 7 8 9 8 11 10 10 10 11 13 14 15 18 19 18 21 24
27 22 20 20 19 22 18 14 21 21 15 27 26 21 20 21 18 17 15 16 21 25 25 25 28 35 40 32 25 6 6 9 3 5 10 13 13 13 11 8 9 11 14 14 13 13 13 16 18
28 27 27 21 19 18 13 17 26 27 31 25 17 16 21 15 14 14 14 19 23 21 20 22 24 30 29 14 14 7 7 4 4 6 10 13 13 13 11 12 10 7 11 12 13 14 12 13 16
26 24 23 26 28 27 25 25 29 23 23 30 21 21 18 12 12 15 18 18 18 16 18 17 16 23 14 11 15 8 6 5 7 8 12 13 14 13 13 13 12 11 9 11 13 17 17 16 17

GFSSGP_500_spd_081.txt.gz
Wind_Speed
23 21 18 15 20 23 18 19 20 18 16 18 19 18 18 16 11 13 16 12 10 9 9 9 9 7 5 3 3 4 5 5 6 8 10 9 10 9 10 10 10 9 7 8 9 10 11 11 12
18 18 10 22 22 16 17 16 17 20 24 25 24 24 22 19 12 8 13 11 11 10 9 9 9 7 7 5 4 5 5 6 7 7 8 10 10 11 10 10 11 10 8 7 11 11 11 11 11
20 14 24 28 21 16 15 15 18 21 23 24 24 25 24 24 23 13 10 10 10 10 9 9 8 8 7 6 4 4 5 6 6 6 7 8 10 11 11 11 11 11 10 10 14 12 13 12 12
14 13 26 28 19 16 16 18 21 20 20 22 26 26 29 29 26 17 13 11 9 10 13 11 9 9 9 7 6 4 3 5 6 5 4 4 7 9 12 11 11 11 13 11 9 13 13 13 13
10 16 24 25 24 25 21 18 18 20 21 20 22 27 29 32 28 24 20 12 10 12 14 15 12 7 8 7 5 4 2 3 5 6 6 5 5 5 10 13 14 13 13 13 8 11 13 13 14
4 25 27 20 17 19 22 22 19 17 17 20 23 26 28 32 31 28 24 22 15 15 17 17 16 13 8 6 5 2 1 1 2 6 8 8 7 7 7 16 15 15 14 12 11 11 13 14 14
22 23 20 20 10 15 21 19 23 24 23 24 22 24 25 27 31 28 27 29 25 22 21 21 19 16 15 11 7 5 3 3 3 4 6 7 7 7 4 14 17 17 15 12 12 11 13 13 14
22 23 27 15 18 13 17 18 26 22 23 20 24 25 24 25 27 28 29 26 26 29 28 25 23 20 17 13 10 9 9 6 5 7 6 8 9 8 7 6 17 18 17 17 14 12 15 14 15
19 27 23 18 21 20 7 15 18 9 16 22 24 24 23 25 27 27 25 26 26 24 24 25 24 20 17 14 11 8 10 11 9 9 10 9 10 11 10 8 12 21 19 18 16 16 16 16 15
21 19 12 9 13 20 18 17 15 19 20 18 23 24 27 25 25 26 25 25 27 27 27 27 30 24 21 15 13 8 9 9 12 12 11 9 10 12 13 10 10 18 21 20 20 19 18 17 15
12 4 8 1 15 19 15 14 18 18 20 14 21 23 24 23 21 23 25 29 31 32 34 30 33 32 33 22 15 10 9 11 11 11 10 10 14 12 15 13 12 14 21 22 21 21 19 18 16
5 7 8 9 14 14 11 20 19 21 17 15 17 20 21 22 21 21 24 23 26 29 29 31 33 31 29 28 28 12 11 10 14 13 12 10 14 13 14 13 15 11 21 23 22 21 20 17 18
17 19 15 17 19 8 15 11 12 20 25 16 16 20 21 20 19 20 22 25 27 28 30 29 28 36 32 27 24 22 12 12 11 8 5 12 16 12 13 14 14 14 20 22 20 19 18 18 17
21 27 23 24 15 14 10 20 15 25 30 8 16 23 25 22 18 17 21 24 26 28 29 32 33 33 35 40 31 25 17 12 9 6 3 9 14 14 13 15 14 16 20 23 21 18 18 18 18
17 17 10 10 7 5 4 20 15 20 27 18 7 13 20 24 20 17 18 23 25 26 25 30 32 33 37 39 39 26 18 12 9 8 3 7 12 16 16 17 16 17 18 19 21 20 18 18 19
18 13 11 8 5 9 20 22 16 17 21 24 7 16 16 26 22 17 17 21 24 24 23 27 30 33 37 40 41 25 21 8 3 10 5 1 10 15 18 18 18 18 18 18 18 20 20 20 19
16 9 11 9 6 13 21 24 14 17 29 19 20 18 20 25 26 21 17 21 21 23 22 24 28 31 35 35 36 30 11 8 3 6 5 2 5 13 15 18 20 18 18 20 21 20 20 21 21
17 15 16 8 7 20 17 13 11 20 24 18 22 29 30 25 27 25 22 19 18 22 23 22 24 27 31 31 31 23 19 12 9 7 8 5 3 7 15 17 18 18 20 19 20 20 19 19 19
19 21 19 16 15 16 15 13 22 25 28 8 24 29 29 31 23 26 23 20 13 19 20 21 25 27 29 29 26 21 18 16 14 10 10 8 6 8 13 17 19 19 21 23 23 21 21 21 18
13 11 20 24 25 28 29 29 29 28 24 14 18 29 33 29 29 22 18 13 15 19 23 25 25 26 27 27 26 27 25 18 17 13 9 11 8 9 10 16 20 21 23 23 23 23 23 23 21
17 22 20 25 31 33 29 36 38 22 11 20 18 20 24 28 30 27 8 12 22 22 24 27 25 26 25 27 27 27 23 27 19 16 12 10 11 9 10 10 17 23 23 25 24 23 22 22 21
17 13 16 24 22 23 24 30 23 14 8 18 9 18 27 32 35 34 14 16 21 21 25 26 25 24 24 28 30 28 24 29 16 17 18 15 12 11 11 12 14 17 22 24 24 25 25 19 21
23 27 22 28 22 25 26 27 22 15 13 17 28 22 22 28 36 31 17 22 28 22 24 25 25 25 27 27 28 33 31 31 15 14 13 17 15 13 12 14 15 17 19 22 21 22 21 23 25
23 30 25 31 28 32 19 21 12 19 18 19 31 27 24 33 37 33 22 30 27 20 22 24 24 24 28 28 28 32 39 33 11 11 13 14 14 14 14 16 17 18 18 21 22 23 23 23 24
25 25 30 31 30 24 3 8 4 7 15 23 26 34 38 40 27 26 29 31 23 18 20 24 27 29 26 30 33 36 41 23 7 10 13 13 10 12 15 16 18 21 20 22 21 19 21 21 21
21 27 35 30 22 12 4 17 12 15 17 24 28 32 34 27 29 34 32 24 22 17 22 26 28 26 30 32 37 42 26 10 6 7 10 10 10 10 8 10 13 14 16 19 18 19 18 19 19
28 34 24 23 18 20 18 12 15 16 22 33 21 24 24 27 25 21 19 18 14 17 23 25 24 26 30 33 42 25 13 12 6 2 5 8 8 9 8 8 8 11 12 14 18 20 20 19 20
29 23 27 26 27 27 22 14 19 18 27 29 25 22 26 23 20 21 17 13 12 18 22 21 20 22 29 39 38 8 15 9 6 4 3 7 9 11 10 9 7 7 10 13 17 18 19 19 18
31 33 26 26 23 17 13 12 22 21 27 30 29 24 27 19 19 19 16 14 14 18 20 16 15 19 24 28 18 12 3 4 4 2 5 8 9 9 8 8 8 9 8 10 11 14 14 15 14
27 35 32 24 31 32 28 23 23 15 23 29 35 34 29 17 17 15 15 14 15 17 16 14 14 15 21 24 4 7 5 7 6 5 5 7 8 8 8 9 8 7 7 6 9 12 14 15 14

GFSSGP_500_spd_087.txt.gz
Wind_Speed
17 18 21 21 21 23 26 27 25 29 28 31 28 27 25 22 12 8 8 7 9 4 5 7 7 7 7 7 8 8 8 7 6 5 6 6 6 6 7 8 7 7 6 7 7 7 7 9 11
20 18 16 18 21 26 27 28 27 27 27 28 27 30 30 21 11 9 8 10 9 7 6 8 9 9 7 7 7 7 7 7 6 5 6 6 6 5 5 6 7 7 6 7 7 8 8 9 10
15 18 21 21 24 30 29 26 24 25 26 24 26 29 33 27 18 15 11 9 10 9 8 9 10 9 10 9 8 7 7 7 5 4 4 5 5 5 5 6 7 7 6 7 10 9 9 10 11
10 11 16 22 24 29 29 28 30 28 27 23 23 27 32 30 22 18 14 13 11 12 10 12 11 10 10 8 7 7 6 6 6 4 4 3 5 6 7 7 7 8 6 5 10 11 11 10 11
6 7 11 18 29 28 32 27 31 31 27 24 22 26 28 27 25 22 17 14 15 14 13 10 10 10 10 10 10 7 5 4 5 4 4 4 4 6 8 8 9 8 8 6 9 12 11 10 10
8 6 9 15 24 29 28 28 24 23 25 26 24 27 26 23 26 27 24 20 17 15 14 12 9 9 10 11 11 10 8 5 6 6 6 7 7 6 8 10 11 10 11 10 8 10 10 11 10
6 9 8 12 22 27 28 25 23 21 19 24 25 26 27 24 26 28 24 21 25 21 17 13 12 9 8 10 11 9 8 7 4 6 8 9 10 10 9 9 13 13 13 12 9 8 11 11 11
8 9 9 12 19 21 24 24 27 24 19 21 24 24 24 25 25 24 22 24 27 23 21 17 13 10 8 7 9 9 8 6 6 6 8 11 12 13 12 10 17 17 16 13 11 9 11 12 11
8 9 10 6 6 13 18 21 21 25 22 18 22 23 22 22 25 22 21 25 27 28 21 21 20 15 7 4 5 5 4 5 5 7 9 11 13 14 13 11 16 19 17 15 14 11 10 12 11
13 12 12 12 6 3 11 15 17 24 18 21 20 21 20 20 22 23 23 24 25 29 26 24 24 21 17 11 3 3 4 3 2 5 9 11 12 15 15 13 13 18 19 16 15 14 10 11 11
17 15 10 11 9 5 4 6 11 16 19 21 20 16 17 16 19 23 23 23 25 25 25 29 28 26 16 13 6 3 1 1 1 3 5 10 15 16 16 15 13 17 20 18 17 16 13 11 11
21 21 13 6 6 7 4 1 5 12 22 21 12 16 15 13 15 20 23 25 25 24 25 27 28 28 23 11 5 3 8 5 1 3 4 10 15 13 14 15 13 13 18 21 19 17 15 12 12
25 25 20 15 10 8 3 4 4 6 17 14 9 10 12 16 12 15 21 25 25 26 25 25 28 30 26 24 10 3 6 5 1 2 4 8 14 13 13 16 16 15 15 20 21 18 16 14 14
33 30 25 20 16 14 13 12 6 6 11 11 14 7 12 13 17 14 15 21 23 25 25 26 26 27 30 26 23 12 6 6 4 3 4 3 13 15 14 14 14 17 17 17 21 20 18 16 14
38 32 25 22 22 23 20 19 14 14 10 10 9 19 7 12 11 14 13 17 21 22 24 27 25 25 27 31 29 25 4 5 4 7 2 1 7 13 15 15 16 17 16 15 20 21 19 18 18
36 32 24 13 17 23 27 14 11 17 9 14 7 8 12 7 12 13 16 16 19 18 21 25 25 21 22 25 27 26 21 11 9 10 9 5 4 11 14 15 17 17 17 16 18 21 20 19 19
36 30 22 19 22 24 27 18 19 14 17 13 12 4 7 10 8 14 17 18 17 17 16 21 25 20 18 20 23 22 21 18 14 9 6 5 4 7 14 19 18 19 19 17 20 21 22 21 20
30 33 27 27 28 29 27 27 24 16 14 15 17 10 7 10 8 10 15 17 16 18 17 16 20 23 16 18 18 20 17 21 20 12 8 7 4 5 9 17 20 20 20 20 21 22 23 26 23
31 36 29 35 33 36 31 29 22 16 19 17 17 16 14 12 9 13 12 17 12 17 17 19 18 18 19 15 17 17 18 18 23 19 13 10 9 6 8 11 18 23 21 22 24 25 23 23 23
34 33 32 37 39 41 33 32 29 20 23 19 18 17 19 18 16 13 14 17 16 16 20 18 18 18 16 15 17 17 19 21 20 24 18 13 13 9 9 12 15 20 23 23 23 25 26 24 23
31 34 31 35 45 41 40 39 30 22 25 27 26 22 24 20 16 16 18 19 21 25 19 22 22 21 16 18 19 19 19 22 24 26 25 15 14 13 12 13 15 16 23 23 24 25 25 25 26
32 29 29 37 48 46 39 45 36 34 31 32 32 33 28 25 19 18 21 19 19 23 22 21 20 22 18 17 19 17 21 24 24 29 29 15 13 14 16 14 16 18 20 26 25 25 28 27 26
24 26 28 29 43 47 50 49 44 37 36 29 31 33 31 27 22 23 25 15 21 22 21 21 20 20 19 18 17 18 20 27 31 32 24 16 12 13 14 17 17 19 19 21 26 27 29 30 30
23 32 30 28 27 43 52 51 50 41 31 35 37 38 29 30 23 18 21 20 20 27 26 20 20 18 19 15 18 21 25 30 34 28 17 15 10 11 12 13 17 18 19 21 23 25 26 29 30
29 32 31 28 26 31 28 36 34 19 28 33 34 31 32 29 17 13 12 13 20 26 22 20 18 19 17 15 20 25 30 31 28 18 19 14 7 9 8 10 14 17 18 19 21 23 25 27 31
33 34 29 28 26 25 25 30 27 24 30 31 33 37 36 31 18 12 14 13 20 18 19 18 18 19 14 15 21 26 31 32 17 30 17 10 7 4 6 6 8 11 13 16 18 21 24 27 30
35 34 29 26 24 21 20 28 24 25 25 26 33 30 30 26 16 15 16 17 17 18 18 17 20 16 12 14 19 22 27 27 11 12 9 4 4 6 6 5 8 9 11 16 18 20 23 32 35
32 30 28 24 29 24 23 27 27 24 22 22 25 21 22 16 16 19 19 19 17 20 17 19 19 12 11 13 17 20 19 20 20 11 4 4 5 9 9 8 8 9 9 11 14 17 13 14 19
30 34 29 33 31 22 26 22 26 26 21 23 24 20 18 13 19 20 14 16 20 21 19 21 16 12 7 10 13 16 18 14 11 8 7 6 8 8 9 10 11 11 11 13 12 16 18 16 15
30 35 32 36 27 28 27 21 13 29 24 12 14 9 14 19 22 22 23 23 24 20 21 20 14 10 6 7 8 12 12 13 10 10 14 11 9 9 9 11 12 12 12 14 13 12 14 14 14

GFSSGP_500_spd_090.txt.gz
Wind_Speed
20 21 18 18 23 27 27 30 31 29 31 31 33 30 25 19 13 11 12 9 7 8 4 4 4 6 9 10 11 11 11 11 11 9 9 10 10 11 11 9 9 7 8 8 9 9 8 9 11
21 18 15 15 22 29 30 32 33 32 30 29 32 33 27 21 18 14 14 11 9 6 4 5 6 8 7 9 11 12 11 11 12 11 10 10 10 10 10 11 9 8 8 8 9 8 8 9 11
16 16 15 19 25 31 33 33 35 29 28 28 32 32 30 24 19 14 13 11 9 6 4 5 7 8 7 7 9 12 12 11 11 10 10 9 10 10 10 10 10 9 8 8 9 9 9 9 11
9 14 21 23 24 25 30 31 31 30 28 29 30 30 30 26 20 17 15 12 10 6 4 5 7 9 9 8 9 8 9 10 10 9 10 10 10 9 9 9 10 10 9 7 9 10 9 9 10
3 7 9 14 18 28 29 28 31 26 26 27 29 28 27 26 25 23 20 16 13 8 5 6 5 7 8 8 9 10 10 9 11 10 9 9 8 9 8 8 9 10 9 7 9 11 11 10 10
4 5 7 11 16 25 27 30 30 29 25 25 25 27 25 22 21 22 23 19 13 8 7 6 5 5 6 7 8 10 10 11 12 11 9 8 9 8 8 9 10 11 11 10 8 9 10 11 11
6 8 7 8 11 20 25 24 27 29 25 21 23 23 25 22 23 27 27 26 20 18 10 8 6 6 5 5 6 7 9 10 10 9 10 9 8 9 9 9 10 11 11 12 8 9 10 10 10
8 11 6 5 9 17 20 20 20 27 23 20 18 22 22 23 24 24 26 28 25 23 20 15 9 5 3 5 4 5 5 6 9 10 10 10 11 11 10 9 12 13 12 13 11 8 10 10 10
11 11 9 5 3 9 13 17 15 22 22 21 16 18 20 22 23 24 25 26 25 22 24 23 16 12 3 5 6 5 4 6 7 7 9 10 12 13 12 11 11 15 14 13 13 10 10 10 10
18 13 7 4 6 2 12 12 15 14 17 18 18 13 15 18 20 22 26 27 24 24 25 25 22 11 6 4 6 8 8 7 7 7 9 11 13 14 14 13 11 17 16 14 14 13 10 11 10
24 19 13 10 5 7 6 8 9 11 11 15 16 16 11 12 16 20 22 24 27 24 25 27 29 25 11 3 3 5 6 7 7 8 9 10 14 16 16 15 13 14 17 16 16 14 11 11 11
26 25 20 13 11 15 4 4 5 5 6 14 9 10 11 9 11 14 18 22 25 26 26 28 28 28 25 21 3 4 3 4 6 5 4 8 15 16 15 16 14 13 16 18 17 16 14 12 13
31 29 27 21 18 14 11 2 3 4 5 6 6 7 10 10 10 11 15 18 21 23 27 29 26 27 27 26 25 3 5 4 4 1 3 5 12 13 14 16 17 14 12 17 19 18 17 15 14
32 30 29 26 20 18 21 8 5 8 0 3 11 3 4 8 9 11 14 16 18 21 23 27 29 22 27 30 31 9 8 7 6 3 3 3 7 12 16 16 16 14 13 13 19 21 19 17 15
36 36 28 27 25 23 24 20 16 17 7 3 4 12 11 6 8 11 13 16 16 18 21 25 27 22 22 25 27 24 13 10 9 8 3 3 5 10 13 15 17 16 16 15 15 21 20 19 18
38 38 29 23 30 27 26 23 21 23 14 9 5 7 3 5 8 10 14 17 19 13 17 21 23 22 17 19 21 18 18 17 13 11 13 8 2 9 14 15 15 16 16 16 16 18 22 21 20
40 38 33 24 29 32 31 29 25 33 21 17 14 9 4 4 8 8 11 15 16 16 16 17 21 21 15 15 16 17 16 17 18 11 9 10 7 4 11 16 17 17 18 18 17 18 21 22 21
36 34 35 31 32 31 35 36 28 31 29 23 17 12 10 5 5 6 11 13 14 13 17 18 22 20 20 11 13 13 15 15 14 16 9 7 7 9 9 12 18 20 19 19 20 20 23 24 22
39 39 38 36 34 37 35 39 34 34 31 33 20 15 10 6 7 9 11 14 14 13 15 16 21 21 19 13 9 12 16 15 15 15 15 8 7 9 12 12 14 18 20 21 21 23 24 25 24
41 40 40 35 35 40 41 44 38 36 35 31 17 18 11 11 13 10 12 15 16 14 8 15 21 24 19 17 13 12 12 13 17 19 17 17 11 10 11 12 15 17 20 22 23 23 24 25 24
41 39 35 34 34 37 48 49 46 42 41 39 27 22 19 17 16 11 12 15 20 20 18 13 19 25 20 17 16 14 12 14 16 20 22 22 17 13 12 14 16 18 20 20 23 24 25 27 26
41 29 31 30 36 37 48 55 51 45 42 36 34 27 25 22 20 17 15 21 18 28 19 17 17 24 22 19 17 14 15 19 19 24 28 29 23 17 14 14 15 17 18 18 22 24 25 27 26
35 25 29 32 36 40 43 55 51 46 44 39 36 33 27 26 25 21 17 21 19 28 23 23 22 23 20 20 16 17 18 18 28 32 28 28 25 19 15 15 15 15 17 18 19 23 25 25 27
34 31 27 33 36 37 46 51 56 47 46 40 34 37 33 31 31 28 20 23 20 28 22 23 24 22 19 17 15 18 20 26 28 30 22 24 18 14 12 14 13 16 16 18 21 22 26 28 27
39 31 28 34 34 35 37 49 53 45 46 44 41 42 39 40 36 31 22 18 15 22 23 23 25 20 17 14 13 18 20 25 30 26 18 29 18 10 8 10 11 16 16 17 20 22 21 23 26
43 35 31 34 36 35 28 44 50 41 45 39 44 45 43 40 33 28 22 15 18 24 23 19 21 18 14 11 12 18 17 23 33 18 17 28 14 6 3 7 9 10 15 22 20 19 19 22 25
33 38 34 30 36 34 36 38 46 51 43 39 41 40 37 33 32 31 21 15 17 21 23 19 18 16 13 10 12 13 15 16 22 16 11 6 4 0 6 6 8 9 9 12 17 17 18 21 25
28 32 39 27 31 36 32 37 36 27 27 31 32 32 28 28 33 31 24 17 17 21 19 18 18 16 14 12 10 13 13 10 12 13 7 6 7 7 7 7 8 8 7 10 12 14 19 22 23
29 30 32 35 31 27 35 38 32 12 13 23 23 18 18 19 24 25 22 22 23 23 21 19 18 17 15 14 9 9 10 12 12 8 10 11 14 14 13 12 12 14 11 9 9 12 16 18 22
33 36 31 32 32 32 25 30 22 13 6 18 21 18 24 27 26 19 28 31 25 26 25 25 22 20 16 14 8 8 6 9 11 12 11 13 14 18 17 17 17 17 17 16 13 12 15 17 22